This is the latest recevied weather packets stored in our database for station/object KD0KHX-10. If no packets are shown the sender has not sent any weather packets the latest 10 day(s).
| Time | Temp. | Humidity | Pressure | Rain* | Wind** | Luminosity | Snow |
|---|---|---|---|---|---|---|---|
| 1777567803 | 6.67° C | 77% | 1015.4 hPa | 0 mm | - | - | - |
| 1777567503 | 6.67° C | 76% | 1015.3 hPa | 0 mm | - | - | - |
| 1777567338 | 6.67° C | 76% | 1015.4 hPa | 0 mm | - | - | - |
| 1777567037 | 6.67° C | 76% | 1015.4 hPa | 0 mm | - | - | - |
| 1777566738 | 6.67° C | 77% | 1015.3 hPa | 0 mm | - | - | - |
| 1777566572 | 7.22° C | 77% | 1015.2 hPa | 0 mm | - | - | - |
| 1777566138 | 7.22° C | 76% | 1015.2 hPa | 0 mm | - | - | - |
| 1777565837 | 7.22° C | 75% | 1015 hPa | 0 mm | - | - | - |
| 1777565403 | 8.33° C | 72% | 1015 hPa | 0 mm | - | - | - |
| 1777565378 | 8.33° C | 72% | 1015 hPa | 0 mm | - | - | - |
| 1777564803 | 8.89° C | 72% | 1015.1 hPa | 0 mm | - | - | - |
| 1777564503 | 8.89° C | 72% | 1015 hPa | 0 mm | - | - | - |
| 1777564473 | 8.89° C | 72% | 1015 hPa | 0 mm | - | - | - |
| 1777563903 | 9.44° C | 67% | 1015 hPa | 0 mm | - | - | - |
| 1777563603 | 9.44° C | 66% | 1014.9 hPa | 0 mm | - | - | - |
| 1777563303 | 8.89° C | 64% | 1014.9 hPa | 0 mm | - | - | - |
| 1777563007 | 8.89° C | 65% | 1014.9 hPa | 0 mm | - | - | - |
| 1777562974 | 8.89° C | 65% | 1014.9 hPa | 0 mm | - | - | - |
| 1777562403 | 8.89° C | 67% | 1015 hPa | 0 mm | - | - | - |
| 1777562103 | 8.33° C | 67% | 1015 hPa | 0 mm | - | - | - |
| 1777561803 | 8.33° C | 67% | 1015 hPa | 0 mm | - | - | - |
| 1777561503 | 8.33° C | 68% | 1015.1 hPa | 0 mm | - | - | - |
| 1777561473 | 8.33° C | 68% | 1015.1 hPa | 0 mm | - | - | - |
| 1777560903 | 8.33° C | 70% | 1015.2 hPa | 0 mm | - | - | - |
| 1777560603 | 8.33° C | 71% | 1015.1 hPa | 0 mm | - | - | - |
* Rain latest hour (hover to see other rain measurements)
** Current wind speed in m/s (hover to see current wind gust speed)